星链-3769 (STARLINK-3769 )

导读

STARLINK-3769是美国太空探索技术公司(SpaceX)于2022年4月21日发射的星链项目卫星,属于星链低轨卫星互联网星座的组成部分。星链项目旨在通过近地轨道卫星组网,为全球提供高速低延迟宽带服务。该卫星运行于近地轨道,帮助星链扩大全球网络覆盖范围,尤其为偏远地区、海洋等传统通信盲区提供互联网接入服务,支撑星链全球卫星互联网络的构建与运营。

基本信息
目录编号:
52300
目录名称:
STARLINK-3769
国际标识:
2022-041AR
轨道中心:
EARTH
卫星名称:
星链-3769
卫星全名:
星链-3769 (STARLINK-3769 )
卫星状态:
在轨 (已飞行1597 天)
发射日期:
2022-04-21 UTC
国别 :
美国 (US)
星等 :
--
轨道信息
数据来源 国际轨道数据
星历时间: 2026-09-04T01:41:42+0800
12小时前
查看轨道信息
半长轴: 6840.878km
偏心率: 0.000126
轨道倾角: 53.162°
近地点辐角 70.634°
升交点赤经 9.739°
平近点角 289.479°
近地点: 461.879km
远地点: 463.603km
周期: 93.849分钟
每日圈数: 15.343874
详细信息
固有亮度:
5
最大亮度:
2.5
卫星平台:
Starlink v1.5
覆盖范围:
全球
运营商:
太空探索技术公司
运营商所在国:
美国
制造商(研发单位):
太空探索技术公司
制造商所在国:
美国
使用方式:
暂无
卫星简介
星链(Starlink)计划是由太空探索技术公司(SpaceX)提出的一个巨型低轨卫星互联网星座项目,计划在2019年至2024年间在太空搭建由约1.2万颗卫星组成的“星链”网络,其中1584颗将部署在地球上空550千米处的近地轨道,并从2020年开始工作。该卫星仍在工作。
2D轨道图
3D轨道图
轨道高度分析图
轨道倾角分析图
轨道综合分析图
查看轨道综合分析图
交会数据列表
事件ID 空间交会对象 最接近时刻(TCA) 交会距离 交会风险概率(CRP) 交会风险指数(CRI) 操作
CDM_260903-110905-084805-230022
2026-09-03T
11:09:51+0000
0.669 km
远距离
6.353203E-5 中风险 0.71
CDM_260905-073005-230006-805721
2026-09-05T
07:30:05+0000
1.036 km
极远距离
1.436925E-5 中风险 0.58
CDM_260905-090305-230006-805721
2026-09-05T
09:03:53+0000
1.103 km
极远距离
1.15921E-5 中风险 0.56
CDM_260903-163805-084805-230021
2026-09-03T
16:38:06+0000
1.291 km
极远距离
7.111564E-6 低风险 0.52
CDM_260901-171705-113905-230023
2026-09-01T
17:17:58+0000
2.903 km
极远距离
1.24098E-6 低风险 0.37
CDM_260904-130404-941805-230022
2026-09-04T
13:04:16+0000
2.809 km
极远距离
1.235386E-6 低风险 0.37
CDM_260904-115105-180705-230021
2026-09-04T
11:51:42+0000
2.913 km
极远距离
1.146082E-6 低风险 0.36
CDM_260905-055605-230006-805721
2026-09-05T
05:56:18+0000
2.846 km
极远距离
9.470697E-7 极低风险 0.35
CDM_260905-103705-230006-805721
2026-09-05T
10:37:40+0000
2.984 km
极远距离
8.949562E-7 极低风险 0.34